Weather History for Marathon, FL

Change the Weather History Date:

Monday, October 1, 2012

  Actual Average Record
Temperature  
Mean Temperature 83 °F 83 °F  
Max Temperature 88 °F 88 °F 92 °F (2014)
Min Temperature 78 °F 78 °F 73 °F (2001)
Degree Days  
Heating Degree Days 0 0  
Month to date heating degree days 0 0  
Since 1 July heating degree days 0 0  
Cooling Degree Days 18 18  
Month to date cooling degree days 18 18  
Year to date cooling degree days 4261 3972  
Growing Degree Days 32 (Base 50)    
Moisture  
Dew Point 78 °F    
Average Humidity 86    
Maximum Humidity 100    
Minimum Humidity 72    
Precipitation  
Precipitation 0.16 in 0.19 in 0.21 in (2013)
Month to date precipitation 0.16 0.19  
Year to date precipitation 40.29 36.74  
Snow  
Snow 0.00 in - - ()
Month to date snowfall 0.0  
Since 1 July snowfall 0.0  
Since 1 September snowfall 0.0  
Snow Depth 0.00 in    
Sea Level Pressure  
Sea Level Pressure 29.82 in    
Wind  
Wind Speed 10 mph (SSW)    
Max Wind Speed 15 mph    
Max Gust Speed 25 mph    
Visibility 9 miles    
Events Rain    
T = Trace of Precipitation, MM = Missing Value Source: NWS Daily Summary

Daily Weather History Graph

Daily Weather History Graph

Search for Another Location

Airport:

Trip Planner

Search our weather history database for the weather conditions in past years. The results will help you decide how hot, cold, wet, or windy it might be!

Date:

Astronomy

Oct. 01, 2012 Rise Set
Actual Time 7:16 AM EDT 7:10 PM EDT
Civil Twilight 6:53 AM EDT 7:33 PM EDT
Nautical Twilight 6:27 AM EDT 7:59 PM EDT
Astronomical Twilight 6:00 AM EDT 8:26 PM EDT
Moon 8:03 PM EDT (10/1) 8:29 AM EDT (10/1)
Length of Visible Light 12h 39m
Length of Day
11h 54m
Full, 98% of the Moon is Illuminated
Oct 1
Full
Oct 8
Last Quarter
Oct 15
New
Oct 21
First Quarter
Oct 29
Full

Hourly Weather History & Observations

Time (EDT) Temp. Heat Index Dew Point Humidity Pressure Visibility Wind Dir Wind Speed Gust Speed Precip Events Conditions
1:53 AM 81.0 °F 87.9 °F 77.0 °F 88% 29.81 in 10.0 mi SSE 5.8 mph - N/A   Mostly Cloudy
2:22 AM 80.6 °F 88.1 °F 78.8 °F 94% 29.80 in 10.0 mi SSW 4.6 mph - N/A   Overcast
2:29 AM 80.6 °F 88.1 °F 78.8 °F 94% 29.80 in 10.0 mi SSW 4.6 mph - N/A   Overcast
2:53 AM 81.0 °F 88.6 °F 78.1 °F 91% 29.79 in 10.0 mi South 8.1 mph - N/A   Mostly Cloudy
3:17 AM 80.6 °F 87.1 °F 77.0 °F 89% 29.79 in 2.5 mi SSW 6.9 mph - 0.06 in Rain Rain
3:25 AM 78.8 °F - 78.8 °F 100% 29.79 in 2.0 mi SSW 5.8 mph - 0.07 in Rain Light Rain
3:32 AM 78.8 °F - 78.8 °F 100% 29.79 in 10.0 mi SSW 8.1 mph - 0.07 in   Mostly Cloudy
3:53 AM 79.0 °F - 78.1 °F 97% 29.79 in 10.0 mi SSW 10.4 mph 16.1 mph 0.07 in   Mostly Cloudy
4:53 AM 79.0 °F - 77.0 °F 94% 29.77 in 5.0 mi SSW 9.2 mph - 0.03 in Rain Light Rain
5:53 AM 80.1 °F 86.7 °F 79.0 °F 96% 29.78 in 10.0 mi South 6.9 mph - 0.00 in   Overcast
6:53 AM 80.1 °F 86.4 °F 78.1 °F 94% 29.79 in 10.0 mi SSW 10.4 mph 18.4 mph 0.03 in   Overcast
7:53 AM 81.0 °F 88.6 °F 78.1 °F 91% 29.81 in 10.0 mi South 10.4 mph 19.6 mph N/A   Mostly Cloudy
8:53 AM 82.9 °F 93.8 °F 79.0 °F 88% 29.83 in 10.0 mi South 10.4 mph 19.6 mph N/A   Scattered Clouds
9:02 AM 84.2 °F 96.1 °F 78.8 °F 84% 29.83 in 10.0 mi South 8.1 mph 17.3 mph N/A   Mostly Cloudy
9:14 AM 82.4 °F 92.4 °F 78.8 °F 89% 29.83 in 10.0 mi South 8.1 mph 18.4 mph N/A   Scattered Clouds
9:53 AM 84.9 °F 97.5 °F 79.0 °F 82% 29.84 in 10.0 mi South 9.2 mph - N/A   Partly Cloudy
11:53 AM 87.1 °F 99.8 °F 78.1 °F 74% 29.86 in 10.0 mi South 10.4 mph 18.4 mph N/A   Scattered Clouds
12:53 PM 87.1 °F 99.8 °F 78.1 °F 74% 29.85 in 10.0 mi South 10.4 mph 18.4 mph N/A   Scattered Clouds
1:53 PM 86.0 °F 98.3 °F 78.1 °F 77% 29.82 in 10.0 mi South 11.5 mph 20.7 mph N/A   Partly Cloudy
2:53 PM 87.1 °F 98.8 °F 77.0 °F 72% 29.81 in 10.0 mi South 11.5 mph 21.9 mph N/A   Mostly Cloudy
3:31 PM 84.2 °F 92.3 °F 75.2 °F 74% 29.81 in 10.0 mi SSW 11.5 mph 19.6 mph N/A   Scattered Clouds
3:53 PM 84.0 °F 93.7 °F 77.0 °F 79% 29.80 in 10.0 mi SSW 10.4 mph 21.9 mph N/A   Partly Cloudy
4:53 PM 84.0 °F 92.6 °F 75.9 °F 76% 29.80 in 10.0 mi SSW 9.2 mph 18.4 mph N/A   Partly Cloudy
5:53 PM 82.9 °F 90.8 °F 75.9 °F 79% 29.81 in 10.0 mi SSW 10.4 mph 21.9 mph N/A   Partly Cloudy
7:01 PM 82.4 °F 90.9 °F 77.0 °F 84% 29.82 in 10.0 mi SSW 13.8 mph 20.7 mph N/A   Mostly Cloudy
7:20 PM 82.4 °F 90.9 °F 77.0 °F 84% 29.82 in 10.0 mi SSW 11.5 mph 20.7 mph N/A   Scattered Clouds
7:53 PM 82.9 °F 91.8 °F 77.0 °F 82% 29.82 in 10.0 mi SSW 10.4 mph 16.1 mph N/A   Partly Cloudy
8:53 PM 82.9 °F 91.8 °F 77.0 °F 82% 29.84 in 10.0 mi South 6.9 mph 16.1 mph N/A   Partly Cloudy
9:45 PM 82.4 °F 92.4 °F 78.8 °F 89% 29.86 in 10.0 mi South 6.9 mph 17.3 mph N/A   Mostly Cloudy
9:53 PM 82.9 °F 92.8 °F 78.1 °F 85% 29.86 in 10.0 mi South 10.4 mph 18.4 mph N/A   Mostly Cloudy
10:32 PM 82.4 °F 92.4 °F 78.8 °F 89% 29.87 in 10.0 mi South 11.5 mph 20.7 mph N/A   Mostly Cloudy
10:53 PM 81.0 °F 88.6 °F 78.1 °F 91% 29.88 in 3.0 mi SSW 11.5 mph 21.9 mph 0.03 in Rain Heavy Rain
11:53 PM 81.0 °F 88.6 °F 78.1 °F 91% 29.88 in 10.0 mi South 9.2 mph 18.4 mph 0.00 in   Scattered Clouds